This is the latest recevied weather packets stored in our database for station/object EA2KR-10. If no packets are shown the sender has not sent any weather packets the latest 10 day(s).
| Time | Temp. | Humidity | Pressure | Rain* | Wind** | Luminosity | Snow |
|---|---|---|---|---|---|---|---|
| 1778055052 | 14.44° C | 64% | 1023.5 hPa | - | - | - | - |
| 1778053252 | 12.78° C | 65% | 1023.6 hPa | - | - | - | - |
| 1778051452 | 12.22° C | 65% | 1023.5 hPa | - | - | - | - |
| 1778049652 | 11.11° C | 67% | 1023.5 hPa | - | - | - | - |
| 1778047852 | 10.56° C | 68% | 1023.3 hPa | - | - | - | - |
| 1778046052 | 10° C | 68% | 1023.1 hPa | - | - | - | - |
| 1778044252 | 10.56° C | 68% | 1023.2 hPa | - | - | - | - |
| 1778042452 | 10° C | 68% | 1023.1 hPa | - | - | - | - |
| 1778040651 | 10° C | 68% | 1023 hPa | - | - | - | - |
| 1778038853 | 10° C | 68% | 1023.1 hPa | - | - | - | - |
| 1778037053 | 10° C | 68% | 1023.1 hPa | - | - | - | - |
| 1778035253 | 9.44° C | 68% | 1023.1 hPa | - | - | - | - |
| 1778033453 | 10.56° C | 67% | 1023.1 hPa | - | - | - | - |
| 1778031653 | 10° C | 68% | 1023.2 hPa | - | - | - | - |
| 1778029853 | 10.56° C | 68% | 1023.4 hPa | - | - | - | - |
| 1778028053 | 10° C | 68% | 1023.5 hPa | - | - | - | - |
| 1778026253 | 9.44° C | 68% | 1023.6 hPa | - | - | - | - |
| 1778024453 | 10° C | 68% | 1023.9 hPa | - | - | - | - |
| 1778022653 | 10° C | 68% | 1023.9 hPa | - | - | - | - |
| 1778020853 | 10° C | 67% | 1024 hPa | - | - | - | - |
| 1778019053 | 10° C | 68% | 1024 hPa | - | - | - | - |
| 1778017253 | 10.56° C | 67% | 1024 hPa | - | - | - | - |
| 1778015452 | 10.56° C | 67% | 1024.1 hPa | - | - | - | - |
| 1778013652 | 10.56° C | 67% | 1024.1 hPa | - | - | - | - |
| 1778011852 | 10° C | 67% | 1023.8 hPa | - | - | - | - |
* Rain since midnight (hover to see other rain measurements)
** Current wind speed in m/s (hover to see current wind gust speed)